Location: Camps Bay
(33.9517°S, 18.3844°E)
Time: 13:36:10
(UTC+00:00)

USA 267 - Pass Details

Date: 18 January 2020
Orbit: 1099 x 1108 km, 123.0° (Epoch: 10 February)

Event Time Altitude Azimuth Distance (km) Brightness Sun altitude
Rises 00:45:30 0° 129° (SE) 3,947 7.2 -29.5°
Reaches altitude 10° 00:48:12 10° 121° (ESE) 2,982 6.3 -29.2°
Maximum altitude 00:54:17 39° 54° (NE) 1,606 4.0 -28.6°
Enters shadow 00:55:02 38° 39° (NE) 1,635 3.9 -28.5°
